STARLINK-35054, 65383

Orbit data source: Space-Track

STARLINK-35054, 65383 is a payload satellite owned by SpaceX/Seattle (US) in SSO that was launched on Sat, 30 Aug 2025 UTC via an FALCON 9 launch vehicle from the Air Force Western Test Range (AFWTR). Payload-class satellites include a variety of spacecraft equipped with specific instruments for various scientific and technological missions. These include communications satellites like Starlink; space stations such as the ISS; scientific satellites like the Hubble; Earth observation satellites from companies like Planet Labs, Umbra, and HawkEye 360; GPS; miniature CubeSats for education and research; and military/defense satellites.

Loading next visibility...
Identifier
65383, 2025-191E
Orbit
SSO
Country
Flag of USUS
Related business
Manufacturer
SpaceX/Seattle
Mission
Operational Commercial Communications
Bus & Motor
STARLINK V2MO, Unknown motor
Mass
575 kg wet, ~530 kg dry
Launch date (UTC)
2025-08-30 (7 months ago)
Launch vehicle
FALCON 9
Launch site
Air Force Western Test Range (AFWTR)
Object type
Payload
Rocket body
Debris
Shape & HBR
Box + 2 Pan, 17.7 m
Radar Cross Section
36.964 m², Large (>1 m²)

Expand to show TLE details & history
Last TLE update: 15 hours ago

TLE from 15 hours ago
0 STARLINK-35054
1 65383U 25191E   26093.60324449  .00014938  00000-0  10373-2 0  9996
2 65383  97.6031 326.0105 0002154  85.5663 274.5809 15.05649987 34012
Epoch: 2026-04-03T14:28Z
TLE epoch observation values (Epoch: 2026-04-03T14:28:40.323Z)
Latitude
-0.00013°
Longitude
-83.0925°
Altitude
552.457 km
Speed
7.586 km/s
True Right ascension
21h 44m 02s
True Declination
0° 00' 00"
Sunlit
Object was in daylight at epoch
Visualization orbit readout
Latitude
Unknown
Longitude
Unknown
Altitude
Unknown
Speed
Unknown
Apparent Right ascension
Unknown
Apparent Declination
Unknown
Sunlit
N/A
Visualization observer readout
Local Sidereal Time
11:25:02
Azimuth
Unknown
Elevation
Unknown
Doppler factor
Unknown
Orbital elements
Apogee altitude
547.996 km
Perigee altitude
545.013 km
Semi-major axis
6,924.642 km
Eccentricity
0.00022
Inclination
97.6031°
RAAN
326.0105°
Arg. of periapsis
85.5663°
True anomaly
274.5563°
Mean anomaly
274.5809°
Eccentric anomaly
274.5686°
Mean motion
3.76658 °/min
Orbital period
95.58 mins
BSTAR
0.0010373
Loading maneuver chart data...
Computing Atmospheric mass density...
Loading historical data...
Loading historical data...
Loading historical data...
Loading historical data...
Loading historical data...
Loading historical data...
Loading historical data...

Documentation

Showing up to 5 results
|